Tracking 29511 objects as of 17-Sep-2024
HD Live streaming from Space Station
objects crossing your sky now

FENGYUN 1C DEB

Track FENGYUN 1C DEB now!
10-day predictions


NORAD ID: 31631
Int'l Code: 1999-025CAM
Perigee: 696.0 km
Apogee: 864.7 km
Inclination: 99.4 °
Period: 100.3 minutes
Semi major axis: 7151 km
RCS: 0.0204 m2 (small)
Launch date: May 10, 1999
Source: People's Republic of China (PRC)
Launch site: Taiyaun Space Center, China (TSC)

Note: This is SATELLITE DEBRIS
Your satellite tracking list
Your tracking list is empty




NASA's NSSDC Master Catalog

Two Line Element Set (TLE):
1 31631U 99025CAM 24258.83104983  .00038317  00000-0  12244-1 0  9992
2 31631  99.3628 111.2328 0117976 248.9459 109.9074 14.35557397885159
Source of the keplerian elements: AFSPC